Location: Catstown
(52.4386°N, 7.2633°W)
Time: 11:13:32
(UTC+00:00)

Cosmos 1833 Rocket - Pass Details

Date: 23 January 2021
Orbit: 833 x 839 km, 71.0° (Epoch: 24 February)

Event Time Altitude Azimuth Distance (km) Brightness Sun altitude
Rises 20:22:27 0° 325° (NW) 3,393 6.4 -30.5°
Reaches altitude 10° 20:25:00 10° 319° (NW) 2,455 5.7 -30.9°
Maximum altitude 20:30:15 42° 250° (WSW) 1,183 3.7 -31.7°
Enters shadow 20:31:34 36° 217° (SW) 1,301 3.8 -31.9°
